TVP7633 HEGN-EPKT

Flight info

Callsign TVP7633
Flight time N/A
Altitude 34000
Route SOLOX1B SOLOX V603 GIDID DCT KAPIT L677 CVO L617 NOZ L551 ANTAR UN133 KPC/N0454F360 UN133 ATFIR N133 LOMOS DCT PADGU DCT GESBA DCT ARCAZ DCT KOVEK DCT REDSI/N0440F370 DCT MEBAN
Aircraft B738/M-SDFGHIJ1LORVWXYZ/LB1

Departure

Time 2026-05-05 13:21
Airport Hurghada International Airport (HEGN)

Arrival

Time N/A
Airport Katowice Wojciech Korfanty International Airport (EPKT)
Time Latitude Longitude Altitude Speed Heading
2026-05-05 12:56 27.18010 33.80387 57 ft 0 kts 255°
2026-05-05 13:08 27.18013 33.80399 49 ft 3 kts 255°
2026-05-05 13:08 27.18018 33.80421 53 ft 3 kts 255°
2026-05-05 13:08 27.18022 33.80439 51 ft 3 kts 253°
2026-05-05 13:08 27.18030 33.80457 56 ft 3 kts 217°
2026-05-05 13:09 27.18045 33.80464 57 ft 3 kts 172°
2026-05-05 13:09 27.18060 33.80460 51 ft 1 kts 165°
2026-05-05 13:09 27.18065 33.80459 49 ft 0 kts 165°
2026-05-05 13:11 27.18050 33.80464 49 ft 7 kts 164°
2026-05-05 13:12 27.17974 33.80486 57 ft 14 kts 165°
2026-05-05 13:12 27.17874 33.80517 50 ft 15 kts 165°
2026-05-05 13:12 27.17775 33.80547 51 ft 14 kts 165°
2026-05-05 13:12 27.17677 33.80574 54 ft 15 kts 166°
2026-05-05 13:13 27.17580 33.80605 55 ft 14 kts 164°
2026-05-05 13:13 27.17492 33.80591 56 ft 14 kts 236°
2026-05-05 13:13 27.17465 33.80488 57 ft 15 kts 256°
2026-05-05 13:13 27.17433 33.80356 50 ft 13 kts 255°
2026-05-05 13:14 27.17429 33.80339 46 ft 0 kts 256°
2026-05-05 13:14 27.17421 33.80299 50 ft 10 kts 257°
2026-05-05 13:15 27.17402 33.80216 52 ft 11 kts 252°
2026-05-05 13:15 27.17377 33.80122 54 ft 15 kts 253°
2026-05-05 13:15 27.17345 33.79985 56 ft 21 kts 255°
2026-05-05 13:15 27.17306 33.79816 68 ft 22 kts 256°
2026-05-05 13:16 27.17264 33.79650 91 ft 22 kts 256°
2026-05-05 13:16 27.17226 33.79521 100 ft 13 kts 228°
2026-05-05 13:16 27.17140 33.79518 103 ft 13 kts 166°
2026-05-05 13:16 27.17054 33.79543 105 ft 13 kts 166°
2026-05-05 13:17 27.16969 33.79568 107 ft 13 kts 164°
2026-05-05 13:17 27.16877 33.79594 106 ft 15 kts 166°
2026-05-05 13:17 27.16763 33.79628 105 ft 18 kts 165°
2026-05-05 13:17 27.16638 33.79665 107 ft 18 kts 165°
2026-05-05 13:18 27.16517 33.79701 107 ft 18 kts 167°
2026-05-05 13:18 27.16399 33.79735 111 ft 17 kts 165°
2026-05-05 13:18 27.16285 33.79770 114 ft 17 kts 165°
2026-05-05 13:18 27.16175 33.79808 112 ft 17 kts 166°
2026-05-05 13:19 27.16057 33.79840 113 ft 17 kts 166°
2026-05-05 13:19 27.15949 33.79847 117 ft 10 kts 214°
2026-05-05 13:19 27.15921 33.79778 121 ft 10 kts 254°
2026-05-05 13:19 27.15909 33.79704 119 ft 10 kts 262°
2026-05-05 13:20 27.15942 33.79674 117 ft 7 kts 345°
2026-05-05 13:20 27.16060 33.79641 115 ft 47 kts 346°
2026-05-05 13:20 27.16632 33.79471 112 ft 120 kts 345°
2026-05-05 13:20 27.17611 33.79184 366 ft 158 kts 346°
2026-05-05 13:21 27.18681 33.78885 1236 ft 161 kts 348°
2026-05-05 13:21 27.19812 33.78590 1930 ft 168 kts 345°
2026-05-05 13:21 27.20960 33.78279 2636 ft 174 kts 344°
2026-05-05 13:21 27.22205 33.77944 3058 ft 191 kts 345°
2026-05-05 13:22 27.23558 33.77581 3417 ft 209 kts 345°
2026-05-05 13:22 27.25066 33.77176 3621 ft 237 kts 344°
2026-05-05 13:22 27.26726 33.76736 4119 ft 251 kts 343°
2026-05-05 13:22 27.28453 33.76280 4830 ft 256 kts 341°
2026-05-05 13:23 27.30167 33.75830 5647 ft 257 kts 342°
2026-05-05 13:23 27.31930 33.75366 6467 ft 259 kts 343°
2026-05-05 13:23 27.33687 33.74905 7194 ft 261 kts 342°
2026-05-05 13:23 27.35518 33.74592 7764 ft 273 kts 351°
2026-05-05 13:24 27.37422 33.74476 8520 ft 274 kts 353°
2026-05-05 13:24 27.39352 33.74387 9181 ft 280 kts 352°
2026-05-05 13:24 27.41291 33.74295 9836 ft 285 kts 352°
2026-05-05 13:24 27.43294 33.74189 10364 ft 294 kts 352°
2026-05-05 13:25 27.45420 33.74063 10511 ft 317 kts 352°
2026-05-05 13:25 27.47696 33.73922 10667 ft 338 kts 352°
2026-05-05 13:25 27.50106 33.73771 10857 ft 355 kts 352°
2026-05-05 13:25 27.52608 33.73616 11323 ft 363 kts 352°
2026-05-05 13:26 27.55137 33.73458 11897 ft 366 kts 352°
2026-05-05 13:26 27.57696 33.73295 12484 ft 370 kts 352°
2026-05-05 13:26 27.60275 33.73099 13035 ft 372 kts 349°
2026-05-05 13:26 27.62853 33.72751 13578 ft 375 kts 347°
2026-05-05 13:27 27.65446 33.72333 14102 ft 378 kts 346°
2026-05-05 13:27 27.68051 33.71898 14634 ft 380 kts 346°
2026-05-05 13:27 27.70673 33.71464 15163 ft 382 kts 346°
2026-05-05 13:27 27.73316 33.71036 15683 ft 385 kts 346°
2026-05-05 13:28 27.75975 33.70613 16193 ft 387 kts 346°
2026-05-05 13:28 27.78655 33.70192 16706 ft 390 kts 346°
2026-05-05 13:28 27.81342 33.69774 17260 ft 391 kts 346°
2026-05-05 13:28 27.84044 33.69355 17753 ft 394 kts 346°
2026-05-05 13:29 27.86771 33.68931 18217 ft 397 kts 346°
2026-05-05 13:29 27.89519 33.68505 18629 ft 400 kts 346°
2026-05-05 13:29 27.91344 33.68222 18931 ft 401 kts 346°
2026-05-05 13:29 27.95048 33.67648 19513 ft 403 kts 345°
2026-05-05 13:30 27.96890 33.67362 19786 ft 405 kts 345°
2026-05-05 13:30 27.99690 33.66927 20186 ft 407 kts 345°
2026-05-05 13:30 28.02508 33.66488 20588 ft 410 kts 345°
2026-05-05 13:30 28.05345 33.66047 21017 ft 412 kts 345°
2026-05-05 13:31 28.08194 33.65604 21459 ft 414 kts 345°
2026-05-05 13:31 28.11061 33.65158 21851 ft 417 kts 345°
2026-05-05 13:31 28.13942 33.64709 22211 ft 419 kts 345°
2026-05-05 13:31 28.16841 33.64257 22588 ft 422 kts 345°
2026-05-05 13:32 28.19694 33.63581 22946 ft 416 kts 335°
2026-05-05 13:32 28.22341 33.62337 23330 ft 410 kts 326°
2026-05-05 13:32 28.24759 33.60668 23674 ft 404 kts 317°
2026-05-05 13:32 28.26924 33.58642 23996 ft 403 kts 314°
2026-05-05 13:33 28.29058 33.56568 24318 ft 405 kts 314°
2026-05-05 13:33 28.31200 33.54480 24641 ft 407 kts 314°
2026-05-05 13:33 28.33361 33.52381 25001 ft 409 kts 314°
2026-05-05 13:33 28.35497 33.50313 25343 ft 410 kts 314°
2026-05-05 13:34 28.37701 33.48186 25642 ft 412 kts 314°
2026-05-05 13:34 28.39893 33.46075 25912 ft 414 kts 314°
2026-05-05 13:34 28.42097 33.43955 26173 ft 416 kts 314°
2026-05-05 13:34 28.44277 33.41859 26457 ft 417 kts 314°
2026-05-05 13:35 28.46497 33.39726 26755 ft 418 kts 314°
2026-05-05 13:35 28.48721 33.37587 27010 ft 420 kts 314°
2026-05-05 13:35 28.50959 33.35433 27276 ft 422 kts 314°
2026-05-05 13:35 28.53202 33.33273 27558 ft 423 kts 314°
2026-05-05 13:36 28.55450 33.31106 27818 ft 425 kts 314°
2026-05-05 13:36 28.57706 33.28931 28128 ft 425 kts 314°
2026-05-05 13:36 28.59962 33.26756 28535 ft 423 kts 314°
2026-05-05 13:36 28.62202 33.24596 28969 ft 421 kts 314°
2026-05-05 13:37 28.64431 33.22444 29357 ft 420 kts 313°
2026-05-05 13:37 28.66656 33.20294 29750 ft 419 kts 314°
2026-05-05 13:37 28.68876 33.18148 30154 ft 417 kts 313°
2026-05-05 13:37 28.71084 33.16011 30494 ft 416 kts 313°
2026-05-05 13:38 28.73283 33.13882 30784 ft 415 kts 313°
2026-05-05 13:38 28.75485 33.11747 31049 ft 415 kts 313°
2026-05-05 13:38 28.77683 33.09616 31342 ft 415 kts 313°
2026-05-05 13:38 28.79876 33.07489 31653 ft 413 kts 313°
2026-05-05 13:39 28.82061 33.05368 31943 ft 412 kts 313°
2026-05-05 13:39 28.84247 33.03246 32213 ft 412 kts 313°
2026-05-05 13:39 28.86425 33.01129 32494 ft 411 kts 313°
2026-05-05 13:39 28.88600 32.99015 32774 ft 410 kts 313°
2026-05-05 13:40 28.90772 32.96902 33041 ft 410 kts 313°
2026-05-05 13:40 28.92940 32.94792 33293 ft 409 kts 313°
2026-05-05 13:40 28.95106 32.92683 33553 ft 409 kts 313°
2026-05-05 13:40 28.97265 32.90579 33819 ft 408 kts 312°
2026-05-05 13:41 28.99425 32.88473 34031 ft 408 kts 313°
2026-05-05 13:41 29.01592 32.86357 34012 ft 411 kts 313°
2026-05-05 13:41 29.05937 32.82114 34023 ft 410 kts 313°
2026-05-05 13:42 29.10243 32.77909 34026 ft 405 kts 312°
2026-05-05 13:42 29.14514 32.73729 34035 ft 403 kts 312°
2026-05-05 13:43 29.18744 32.69584 34039 ft 403 kts 312°
2026-05-05 13:43 29.22996 32.65411 34034 ft 403 kts 312°
2026-05-05 13:44 29.27247 32.61232 34036 ft 403 kts 311°
2026-05-05 13:44 29.30912 32.56504 34057 ft 395 kts 302°
2026-05-05 13:45 29.34293 32.51516 34062 ft 397 kts 302°
2026-05-05 13:45 29.37702 32.46510 34044 ft 399 kts 302°
2026-05-05 13:46 29.41135 32.41487 34035 ft 401 kts 302°
2026-05-05 13:46 29.44579 32.36450 34041 ft 402 kts 302°
2026-05-05 13:47 29.48034 32.31392 34046 ft 403 kts 302°
2026-05-05 13:47 29.51488 32.26329 34043 ft 403 kts 302°
2026-05-05 13:48 29.54921 32.21290 34044 ft 403 kts 302°
2026-05-05 13:48 29.58371 32.16220 34049 ft 402 kts 302°
2026-05-05 13:49 29.61810 32.11161 34043 ft 401 kts 302°
2026-05-05 13:49 29.65233 32.06116 34056 ft 400 kts 302°
2026-05-05 13:50 29.68646 32.01081 34044 ft 399 kts 302°
2026-05-05 13:50 29.72044 31.96061 34048 ft 397 kts 302°
2026-05-05 13:51 29.75438 31.91041 34077 ft 396 kts 302°
2026-05-05 13:51 29.78818 31.86030 34068 ft 396 kts 302°
2026-05-05 13:52 29.82114 31.80963 34052 ft 395 kts 301°
2026-05-05 13:52 29.85373 31.75889 34063 ft 394 kts 301°
2026-05-05 13:53 29.88629 31.70828 34060 ft 393 kts 301°
2026-05-05 13:53 29.91887 31.65771 34068 ft 392 kts 301°
2026-05-05 13:54 29.95139 31.60719 34070 ft 392 kts 301°
2026-05-05 13:54 29.98368 31.55696 34048 ft 393 kts 301°
2026-05-05 13:55 30.01619 31.50632 34043 ft 393 kts 301°
2026-05-05 13:55 30.04879 31.45550 34053 ft 394 kts 301°
2026-05-05 13:56 30.08142 31.40457 34047 ft 395 kts 302°
2026-05-05 13:56 30.11940 31.35780 34059 ft 403 kts 311°
2026-05-05 13:57 30.16075 31.31402 34090 ft 403 kts 311°
2026-05-05 13:57 30.20203 31.27004 34056 ft 403 kts 311°
2026-05-05 13:58 30.24309 31.22603 34042 ft 402 kts 311°
2026-05-05 13:58 30.28404 31.18201 34040 ft 401 kts 311°
2026-05-05 13:59 30.34482 31.11655 34043 ft 399 kts 311°
2026-05-05 14:00 30.39904 31.05805 34046 ft 397 kts 311°
2026-05-05 14:00 30.44594 31.00737 34050 ft 396 kts 311°
2026-05-05 14:01 30.48620 30.96380 34052 ft 396 kts 311°
2026-05-05 14:01 30.52648 30.92017 34059 ft 396 kts 311°
2026-05-05 14:02 30.56672 30.87654 34054 ft 396 kts 311°
2026-05-05 14:02 30.60687 30.83295 34057 ft 395 kts 311°
2026-05-05 14:03 30.64702 30.78930 34057 ft 395 kts 311°
2026-05-05 14:03 30.68711 30.74566 34056 ft 395 kts 311°
2026-05-05 14:04 30.72714 30.70205 34062 ft 395 kts 311°
2026-05-05 14:04 30.76720 30.65834 34063 ft 395 kts 311°
2026-05-05 14:05 30.80726 30.61459 34069 ft 395 kts 311°
2026-05-05 14:05 30.84731 30.57079 34083 ft 396 kts 311°
2026-05-05 14:06 30.88741 30.52688 34077 ft 396 kts 311°
2026-05-05 14:06 30.92750 30.48293 34075 ft 396 kts 311°
2026-05-05 14:07 30.96730 30.43924 34073 ft 396 kts 311°
2026-05-05 14:07 31.00733 30.39524 34073 ft 396 kts 311°
2026-05-05 14:08 31.04734 30.35123 34077 ft 395 kts 311°
2026-05-05 14:08 31.08311 30.30356 34089 ft 387 kts 299°
2026-05-05 14:09 31.10731 30.24802 34076 ft 382 kts 286°
2026-05-05 14:09 31.12335 30.18891 34086 ft 382 kts 285°
2026-05-05 14:10 31.13931 30.12967 34086 ft 383 kts 286°
2026-05-05 14:10 31.15551 30.07025 34091 ft 384 kts 286°
2026-05-05 14:11 31.17175 30.01075 34092 ft 385 kts 286°
2026-05-05 14:11 31.18224 29.98189 34092 ft 389 kts 299°
2026-05-05 14:11 31.19843 29.95649 34114 ft 393 kts 307°
2026-05-05 14:12 31.24163 29.91609 34117 ft 407 kts 324°
2026-05-05 14:12 31.29150 29.88537 34112 ft 408 kts 326°
2026-05-05 14:13 31.34175 29.85467 34095 ft 407 kts 325°
2026-05-05 14:13 31.39164 29.82375 34103 ft 405 kts 325°
2026-05-05 14:14 31.44117 29.79277 34091 ft 403 kts 325°
2026-05-05 14:14 31.49041 29.76189 34091 ft 401 kts 325°
2026-05-05 14:15 31.53947 29.73106 34116 ft 399 kts 325°
2026-05-05 14:15 31.58830 29.70035 34100 ft 398 kts 325°
2026-05-05 14:16 31.63703 29.66966 34095 ft 397 kts 325°
2026-05-05 14:16 31.68561 29.63903 34094 ft 396 kts 325°
2026-05-05 14:17 31.73384 29.60859 34097 ft 396 kts 325°
2026-05-05 14:17 31.78238 29.57791 34084 ft 396 kts 325°
2026-05-05 14:18 31.83097 29.54716 34121 ft 397 kts 325°
2026-05-05 14:18 31.88010 29.51603 34101 ft 399 kts 325°
2026-05-05 14:19 31.92868 29.48523 34089 ft 399 kts 325°
2026-05-05 14:19 31.97758 29.45418 34089 ft 400 kts 325°
2026-05-05 14:20 32.02650 29.42305 34087 ft 400 kts 325°
2026-05-05 14:20 32.07536 29.39183 34087 ft 399 kts 325°
2026-05-05 14:21 32.12421 29.36056 34107 ft 399 kts 326°
2026-05-05 14:21 32.17303 29.32929 34093 ft 399 kts 326°
2026-05-05 14:22 32.21355 29.30331 34085 ft 398 kts 326°
2026-05-05 14:22 32.26221 29.27216 34083 ft 397 kts 326°
2026-05-05 14:23 32.31097 29.24090 34098 ft 401 kts 326°
2026-05-05 14:23 32.36046 29.20909 34093 ft 409 kts 326°
2026-05-05 14:24 32.41088 29.17668 34092 ft 415 kts 326°
2026-05-05 14:24 32.46191 29.14385 34083 ft 418 kts 326°
2026-05-05 14:25 32.51312 29.11088 34078 ft 420 kts 326°
2026-05-05 14:25 32.56448 29.07775 34081 ft 420 kts 326°
2026-05-05 14:26 32.61577 29.04463 34081 ft 420 kts 326°
2026-05-05 14:26 32.66668 29.01170 34097 ft 419 kts 326°
2026-05-05 14:27 32.71783 28.97856 34089 ft 419 kts 326°
2026-05-05 14:27 32.76885 28.94547 34080 ft 418 kts 326°
2026-05-05 14:28 32.81985 28.91235 34078 ft 416 kts 326°
2026-05-05 14:28 32.87060 28.87934 34086 ft 416 kts 326°
2026-05-05 14:29 32.92131 28.84632 34086 ft 415 kts 326°
2026-05-05 14:29 32.97198 28.81328 34100 ft 415 kts 327°
2026-05-05 14:30 33.02252 28.78028 34085 ft 414 kts 327°
2026-05-05 14:30 33.07297 28.74730 34081 ft 413 kts 327°
2026-05-05 14:31 33.12333 28.71432 34078 ft 413 kts 326°
2026-05-05 14:31 33.17364 28.68134 34077 ft 412 kts 326°
2026-05-05 14:32 33.22389 28.64835 34072 ft 412 kts 327°
2026-05-05 14:32 33.27410 28.61536 34090 ft 412 kts 327°
2026-05-05 14:33 33.32391 28.58258 34072 ft 411 kts 327°
2026-05-05 14:33 33.37384 28.54967 34078 ft 409 kts 327°
2026-05-05 14:34 33.42364 28.51681 34078 ft 409 kts 327°
2026-05-05 14:34 33.47347 28.48388 34070 ft 409 kts 327°
2026-05-05 14:35 33.52329 28.45092 34093 ft 409 kts 327°
2026-05-05 14:35 33.57310 28.41791 34082 ft 409 kts 327°
2026-05-05 14:36 33.62289 28.38488 34073 ft 409 kts 327°
2026-05-05 14:36 33.67262 28.35185 34073 ft 409 kts 327°
2026-05-05 14:37 33.72243 28.31871 34068 ft 409 kts 327°
2026-05-05 14:37 33.77219 28.28556 34071 ft 409 kts 327°
2026-05-05 14:38 33.82194 28.25232 34079 ft 410 kts 327°
2026-05-05 14:38 33.87168 28.21876 34075 ft 410 kts 327°
2026-05-05 14:39 33.92112 28.18532 34065 ft 410 kts 327°
2026-05-05 14:39 33.97090 28.15162 34065 ft 411 kts 327°
2026-05-05 14:40 34.02070 28.11788 34065 ft 411 kts 327°
2026-05-05 14:40 34.07051 28.08408 34065 ft 411 kts 327°
2026-05-05 14:41 34.12045 28.05015 34075 ft 412 kts 327°
2026-05-05 14:41 34.17038 28.01619 34064 ft 412 kts 327°
2026-05-05 14:42 34.22038 27.98213 34063 ft 413 kts 327°
2026-05-05 14:42 34.27039 27.94801 34062 ft 413 kts 327°
2026-05-05 14:43 34.32035 27.91389 34062 ft 413 kts 327°
2026-05-05 14:43 34.37033 27.87970 34069 ft 413 kts 328°
2026-05-05 14:44 34.42037 27.84542 34062 ft 413 kts 328°
2026-05-05 14:44 34.47044 27.81106 34060 ft 414 kts 328°
2026-05-05 14:45 34.52053 27.77666 34060 ft 414 kts 328°
2026-05-05 14:45 34.57062 27.74217 34060 ft 414 kts 328°
2026-05-05 14:46 34.62065 27.70760 34060 ft 414 kts 328°
2026-05-05 14:46 34.67064 27.67299 34069 ft 415 kts 328°
2026-05-05 14:47 34.72090 27.63815 34056 ft 416 kts 328°
2026-05-05 14:47 34.77116 27.60327 34055 ft 416 kts 328°
2026-05-05 14:48 34.82107 27.56858 34055 ft 416 kts 328°
2026-05-05 14:48 34.87136 27.53358 34054 ft 416 kts 328°
2026-05-05 14:49 34.92166 27.49852 34065 ft 417 kts 328°
2026-05-05 14:49 34.97204 27.46336 34050 ft 417 kts 328°
2026-05-05 14:50 35.02234 27.42820 34052 ft 417 kts 328°
2026-05-05 14:50 35.07264 27.39299 34052 ft 417 kts 328°
2026-05-05 14:51 35.12290 27.35776 34051 ft 417 kts 328°
2026-05-05 14:51 35.17314 27.32249 34052 ft 417 kts 328°
2026-05-05 14:52 35.22343 27.28713 34052 ft 416 kts 328°
2026-05-05 14:52 35.27363 27.25179 34051 ft 416 kts 328°
2026-05-05 14:53 35.32381 27.21641 34055 ft 416 kts 328°
2026-05-05 14:53 35.37396 27.18099 34049 ft 416 kts 328°
2026-05-05 14:54 35.42417 27.14573 34045 ft 416 kts 330°
2026-05-05 14:54 35.47661 27.11554 34062 ft 417 kts 333°
2026-05-05 14:55 35.52946 27.08621 34049 ft 417 kts 333°
2026-05-05 14:55 35.58216 27.05668 34050 ft 416 kts 333°
2026-05-05 14:56 35.63474 27.02698 34052 ft 416 kts 333°
2026-05-05 14:56 35.68729 26.99719 34053 ft 416 kts 333°
2026-05-05 14:57 35.73983 26.96738 34049 ft 416 kts 333°
2026-05-05 14:57 35.79240 26.93751 34050 ft 416 kts 333°
2026-05-05 14:58 35.84496 26.90760 34060 ft 416 kts 333°
2026-05-05 14:58 35.89751 26.87764 34048 ft 416 kts 333°
2026-05-05 14:59 35.94996 26.84767 34059 ft 415 kts 333°
2026-05-05 14:59 36.00233 26.81769 34058 ft 415 kts 333°
2026-05-05 15:00 36.04579 26.79278 34063 ft 414 kts 333°
2026-05-05 15:00 36.10649 26.75795 34061 ft 414 kts 333°
2026-05-05 15:01 36.15867 26.72794 34051 ft 414 kts 333°
2026-05-05 15:01 36.21083 26.69791 34057 ft 413 kts 333°
2026-05-05 15:02 36.26301 26.66783 34064 ft 414 kts 333°
2026-05-05 15:02 36.31516 26.63768 34056 ft 414 kts 333°
2026-05-05 15:03 36.36725 26.60746 34054 ft 413 kts 333°
2026-05-05 15:03 36.41933 26.57721 34057 ft 413 kts 333°
2026-05-05 15:04 36.47134 26.54694 34041 ft 412 kts 333°
2026-05-05 15:04 36.52331 26.51667 34060 ft 412 kts 333°
2026-05-05 15:05 36.60127 26.47123 34051 ft 412 kts 333°
2026-05-05 15:06 36.65321 26.44091 34055 ft 412 kts 333°
2026-05-05 15:06 36.70516 26.41053 34054 ft 413 kts 333°
2026-05-05 15:07 36.75712 26.38010 34074 ft 413 kts 333°
2026-05-05 15:07 36.80908 26.34961 34059 ft 413 kts 333°
2026-05-05 15:08 36.86099 26.31911 34056 ft 412 kts 333°
2026-05-05 15:08 36.91291 26.28856 34055 ft 412 kts 333°
2026-05-05 15:09 36.96477 26.25800 34034 ft 412 kts 333°
2026-05-05 15:09 37.01640 26.22713 34058 ft 411 kts 332°
2026-05-05 15:10 37.05916 26.20095 34051 ft 411 kts 332°
2026-05-05 15:10 37.11058 26.16940 34052 ft 411 kts 332°
2026-05-05 15:11 37.16198 26.13789 34052 ft 411 kts 332°
2026-05-05 15:11 37.21338 26.10637 34057 ft 411 kts 332°
2026-05-05 15:12 37.26481 26.07480 34077 ft 411 kts 332°
2026-05-05 15:12 37.31625 26.04317 34062 ft 412 kts 332°
2026-05-05 15:13 37.36769 26.01150 34056 ft 412 kts 332°
2026-05-05 15:13 37.41905 25.97982 34056 ft 411 kts 332°
2026-05-05 15:14 37.47047 25.94805 34030 ft 411 kts 332°
2026-05-05 15:14 37.52173 25.91633 34060 ft 411 kts 332°
2026-05-05 15:15 37.57309 25.88451 34056 ft 411 kts 332°
2026-05-05 15:15 37.62443 25.85267 34058 ft 411 kts 332°
2026-05-05 15:16 37.67579 25.82079 34057 ft 411 kts 332°
2026-05-05 15:16 37.72713 25.78888 34055 ft 411 kts 332°
2026-05-05 15:17 37.77810 25.75713 34057 ft 411 kts 332°
2026-05-05 15:17 37.82943 25.72511 34057 ft 411 kts 332°
2026-05-05 15:18 37.88073 25.69306 34055 ft 411 kts 332°
2026-05-05 15:18 37.93202 25.66095 34055 ft 411 kts 332°
2026-05-05 15:19 37.98338 25.62877 34040 ft 411 kts 332°
2026-05-05 15:19 38.03460 25.59661 34050 ft 411 kts 332°
2026-05-05 15:20 38.08594 25.56433 34053 ft 412 kts 332°
2026-05-05 15:20 38.13733 25.53196 34052 ft 412 kts 332°
2026-05-05 15:21 38.18871 25.49956 34052 ft 413 kts 332°
2026-05-05 15:21 38.24015 25.46706 34051 ft 413 kts 332°
2026-05-05 15:22 38.29152 25.43456 34060 ft 413 kts 332°
2026-05-05 15:22 38.34298 25.40194 34054 ft 413 kts 332°
2026-05-05 15:23 38.39439 25.36931 34055 ft 413 kts 332°
2026-05-05 15:23 38.44576 25.33665 34049 ft 413 kts 332°
2026-05-05 15:24 38.49709 25.30395 34048 ft 412 kts 332°
2026-05-05 15:24 38.54805 25.27145 34051 ft 412 kts 332°
2026-05-05 15:25 38.59932 25.23870 34049 ft 412 kts 332°
2026-05-05 15:25 38.65048 25.20596 34049 ft 411 kts 332°
2026-05-05 15:26 38.70170 25.17313 34049 ft 411 kts 332°
2026-05-05 15:26 38.75287 25.14029 34049 ft 411 kts 332°
2026-05-05 15:27 38.80398 25.10742 34053 ft 411 kts 332°
2026-05-05 15:27 38.85510 25.07450 34049 ft 411 kts 332°
2026-05-05 15:28 38.90615 25.04157 34049 ft 411 kts 332°
2026-05-05 15:28 38.95719 25.00859 34039 ft 411 kts 332°
2026-05-05 15:29 39.00818 24.97558 34052 ft 410 kts 332°
2026-05-05 15:29 39.05923 24.94249 34046 ft 411 kts 332°
2026-05-05 15:30 39.11025 24.90944 34046 ft 411 kts 333°
2026-05-05 15:30 39.16176 24.87742 34050 ft 411 kts 333°
2026-05-05 15:31 39.21334 24.84568 34049 ft 411 kts 333°
2026-05-05 15:31 39.26492 24.81375 34054 ft 411 kts 333°
2026-05-05 15:32 39.31646 24.78169 34044 ft 411 kts 333°
2026-05-05 15:32 39.36803 24.74954 34044 ft 411 kts 333°
2026-05-05 15:33 39.41956 24.71735 34049 ft 411 kts 333°
2026-05-05 15:33 39.47109 24.68512 34047 ft 411 kts 333°
2026-05-05 15:34 39.52262 24.65286 34052 ft 412 kts 333°
2026-05-05 15:34 39.57385 24.62075 34044 ft 412 kts 333°
2026-05-05 15:35 39.62539 24.58841 34041 ft 412 kts 333°
2026-05-05 15:35 39.67699 24.55596 34045 ft 412 kts 333°
2026-05-05 15:36 39.72856 24.52347 34059 ft 412 kts 333°
2026-05-05 15:36 39.78016 24.49091 34047 ft 413 kts 333°
2026-05-05 15:37 39.83192 24.45819 34324 ft 413 kts 333°
2026-05-05 15:37 39.85776 24.44184 34520 ft 412 kts 333°
2026-05-05 15:37 39.88352 24.42552 34692 ft 412 kts 333°
2026-05-05 15:37 39.90929 24.40918 34830 ft 412 kts 333°
2026-05-05 15:38 39.93510 24.39281 34974 ft 413 kts 333°
2026-05-05 15:38 39.96092 24.37641 35100 ft 412 kts 333°
2026-05-05 15:38 39.98670 24.36003 35237 ft 413 kts 333°
2026-05-05 15:38 40.01258 24.34356 35356 ft 414 kts 333°
2026-05-05 15:39 40.03849 24.32707 35524 ft 413 kts 333°
2026-05-05 15:39 40.06428 24.31063 35689 ft 413 kts 333°
2026-05-05 15:39 40.09012 24.29416 35825 ft 413 kts 333°
2026-05-05 15:39 40.11594 24.27768 35955 ft 413 kts 333°
2026-05-05 15:40 40.14173 24.26120 36013 ft 413 kts 333°
2026-05-05 15:40 40.19354 24.22806 36027 ft 415 kts 333°
2026-05-05 15:41 40.24533 24.19488 36022 ft 414 kts 333°
2026-05-05 15:41 40.29703 24.16170 36034 ft 414 kts 333°
2026-05-05 15:42 40.34874 24.12844 36032 ft 414 kts 333°
2026-05-05 15:42 40.40039 24.09518 36023 ft 414 kts 333°
2026-05-05 15:43 40.45201 24.06187 36018 ft 413 kts 333°
2026-05-05 15:43 40.50359 24.02854 36031 ft 413 kts 333°
2026-05-05 15:44 40.55511 23.99518 36020 ft 413 kts 333°
2026-05-05 15:44 40.60797 23.96562 36018 ft 415 kts 342°
2026-05-05 15:45 40.66482 23.95113 36020 ft 417 kts 347°
2026-05-05 15:45 40.72201 23.93801 36017 ft 418 kts 347°
2026-05-05 15:46 40.77931 23.92455 36019 ft 418 kts 347°
2026-05-05 15:46 40.83662 23.91088 36025 ft 419 kts 347°
2026-05-05 15:47 40.89373 23.89720 36019 ft 421 kts 347°
2026-05-05 15:47 40.95140 23.88335 36026 ft 422 kts 347°
2026-05-05 15:48 41.00921 23.86946 36010 ft 423 kts 347°
2026-05-05 15:48 41.06710 23.85552 36012 ft 423 kts 347°
2026-05-05 15:49 41.12506 23.84151 36025 ft 423 kts 347°
2026-05-05 15:49 41.18308 23.82751 36014 ft 424 kts 347°
2026-05-05 15:50 41.24112 23.81347 36009 ft 424 kts 347°
2026-05-05 15:50 41.29922 23.79944 36016 ft 425 kts 347°
2026-05-05 15:51 41.35744 23.78562 36016 ft 425 kts 348°
2026-05-05 15:51 41.41576 23.77235 36025 ft 425 kts 350°
2026-05-05 15:52 41.47471 23.76355 36025 ft 427 kts 352°
2026-05-05 15:52 41.53390 23.75586 36018 ft 428 kts 352°
2026-05-05 15:53 41.59317 23.74783 36009 ft 428 kts 351°
2026-05-05 15:53 41.65242 23.73950 36031 ft 428 kts 351°
2026-05-05 15:54 41.71170 23.73105 36046 ft 429 kts 352°
2026-05-05 15:54 41.77110 23.72255 36040 ft 429 kts 352°
2026-05-05 15:55 41.83053 23.71404 36046 ft 430 kts 352°
2026-05-05 15:55 41.87993 23.70696 36045 ft 429 kts 351°
2026-05-05 15:56 41.93932 23.69843 36057 ft 429 kts 352°
2026-05-05 15:56 41.99874 23.68988 36052 ft 429 kts 352°
2026-05-05 15:57 42.05816 23.68132 36044 ft 429 kts 352°
2026-05-05 15:57 42.11749 23.67275 36054 ft 429 kts 352°
2026-05-05 15:58 42.17724 23.66411 36059 ft 429 kts 352°
2026-05-05 15:58 42.23621 23.65556 36056 ft 430 kts 352°
2026-05-05 15:59 42.29569 23.64685 36045 ft 430 kts 351°
2026-05-05 15:59 42.35387 23.62992 36060 ft 428 kts 344°
2026-05-05 16:00 42.41144 23.60912 36052 ft 428 kts 343°
2026-05-05 16:00 42.46897 23.58853 36056 ft 428 kts 344°
2026-05-05 16:01 42.52663 23.56833 36058 ft 428 kts 344°
2026-05-05 16:01 42.58437 23.54826 36048 ft 429 kts 344°
2026-05-05 16:02 42.64219 23.52815 36049 ft 429 kts 344°
2026-05-05 16:02 42.70000 23.50800 36044 ft 429 kts 344°
2026-05-05 16:03 42.75792 23.48776 36054 ft 430 kts 344°
2026-05-05 16:03 42.81590 23.46746 36052 ft 430 kts 344°
2026-05-05 16:04 42.87392 23.44711 36041 ft 431 kts 344°
2026-05-05 16:04 42.93196 23.42671 36040 ft 431 kts 344°
2026-05-05 16:05 42.99009 23.40624 36017 ft 431 kts 344°
2026-05-05 16:05 43.04815 23.38578 36044 ft 431 kts 344°
2026-05-05 16:06 43.10629 23.36520 36026 ft 432 kts 344°
2026-05-05 16:06 43.16441 23.34461 36032 ft 432 kts 344°
2026-05-05 16:07 43.22279 23.32511 36016 ft 433 kts 350°
2026-05-05 16:07 43.28292 23.31809 36012 ft 434 kts 354°
2026-05-05 16:08 43.34317 23.31124 36004 ft 434 kts 353°
2026-05-05 16:08 43.40341 23.30356 36000 ft 435 kts 353°
2026-05-05 16:09 43.46374 23.29587 36002 ft 436 kts 353°
2026-05-05 16:09 43.52378 23.28827 35986 ft 436 kts 353°
2026-05-05 16:10 43.58423 23.28079 35990 ft 437 kts 353°
2026-05-05 16:10 43.64475 23.27335 35986 ft 437 kts 353°
2026-05-05 16:11 43.70529 23.26587 35968 ft 437 kts 353°
2026-05-05 16:12 43.82606 23.24825 35971 ft 436 kts 345°
2026-05-05 16:13 43.96524 23.16703 35985 ft 435 kts 336°
2026-05-05 16:13 44.02051 23.13259 35961 ft 436 kts 335°
2026-05-05 16:14 44.13101 23.06305 35976 ft 436 kts 335°
2026-05-05 16:15 44.24157 22.99304 35974 ft 437 kts 335°
2026-05-05 16:16 44.35232 22.92264 35968 ft 437 kts 335°
2026-05-05 16:17 44.43544 22.86960 35973 ft 438 kts 335°
2026-05-05 16:18 44.51865 22.81634 35969 ft 438 kts 335°
2026-05-05 16:19 44.60183 22.76293 35968 ft 439 kts 335°
2026-05-05 16:19 44.68503 22.70934 35983 ft 438 kts 335°
2026-05-05 16:20 44.79585 22.63769 35973 ft 438 kts 335°
2026-05-05 16:22 44.93416 22.54785 35986 ft 438 kts 335°
2026-05-05 16:23 45.04497 22.47552 35998 ft 439 kts 335°
2026-05-05 16:23 45.12829 22.42093 35974 ft 440 kts 334°
2026-05-05 16:24 45.18389 22.38440 35985 ft 441 kts 335°
2026-05-05 16:25 45.26709 22.32960 35989 ft 442 kts 334°
2026-05-05 16:25 45.35078 22.27429 35985 ft 443 kts 334°
2026-05-05 16:26 45.46251 22.20017 35976 ft 443 kts 334°
2026-05-05 16:27 45.51839 22.16298 35965 ft 444 kts 334°
2026-05-05 16:27 45.57429 22.12568 35965 ft 444 kts 334°
2026-05-05 16:28 45.63026 22.08826 35965 ft 444 kts 334°
2026-05-05 16:28 45.68622 22.05077 35948 ft 444 kts 334°
2026-05-05 16:29 45.74225 22.01314 35952 ft 445 kts 334°
2026-05-05 16:29 45.79834 21.97540 35956 ft 446 kts 334°
2026-05-05 16:30 45.85448 21.93753 35950 ft 446 kts 334°
2026-05-05 16:30 45.91063 21.89956 35951 ft 446 kts 334°
2026-05-05 16:31 45.96683 21.86149 35950 ft 447 kts 334°
2026-05-05 16:31 46.02303 21.82333 35947 ft 447 kts 334°
2026-05-05 16:32 46.07930 21.78502 35950 ft 448 kts 334°
2026-05-05 16:32 46.13566 21.74658 35951 ft 448 kts 334°
2026-05-05 16:33 46.19201 21.70805 35946 ft 448 kts 334°
2026-05-05 16:33 46.24837 21.66942 35942 ft 448 kts 334°
2026-05-05 16:34 46.30476 21.63068 35936 ft 449 kts 334°
2026-05-05 16:34 46.36067 21.59220 35941 ft 449 kts 333°
2026-05-05 16:35 46.41738 21.55306 35937 ft 449 kts 333°
2026-05-05 16:35 46.47391 21.51396 35937 ft 449 kts 333°
2026-05-05 16:36 46.52990 21.47515 35936 ft 449 kts 333°
2026-05-05 16:36 46.58624 21.43567 35929 ft 450 kts 333°
2026-05-05 16:37 46.64241 21.39513 35938 ft 450 kts 332°
2026-05-05 16:37 46.69845 21.35442 35931 ft 450 kts 332°
2026-05-05 16:38 46.75453 21.31371 35932 ft 450 kts 332°
2026-05-05 16:38 46.81065 21.27296 35928 ft 450 kts 332°
2026-05-05 16:39 46.86676 21.23223 35919 ft 451 kts 333°
2026-05-05 16:39 46.92405 21.19470 35930 ft 452 kts 335°
2026-05-05 16:40 46.97254 21.16441 35925 ft 452 kts 335°
2026-05-05 16:40 47.02998 21.12815 35921 ft 453 kts 335°
2026-05-05 16:41 47.08771 21.09110 35922 ft 453 kts 335°
2026-05-05 16:41 47.14537 21.05380 35925 ft 453 kts 335°
2026-05-05 16:42 47.20316 21.01627 35917 ft 455 kts 335°
2026-05-05 16:42 47.26109 20.97857 35919 ft 456 kts 334°
2026-05-05 16:43 47.31911 20.94074 35917 ft 456 kts 334°
2026-05-05 16:43 47.37712 20.90283 35926 ft 457 kts 334°
2026-05-05 16:44 47.43520 20.86478 35919 ft 457 kts 334°
2026-05-05 16:44 47.49336 20.82659 35916 ft 457 kts 334°
2026-05-05 16:45 47.55144 20.78835 35910 ft 457 kts 334°
2026-05-05 16:45 47.60950 20.75004 35910 ft 457 kts 334°
2026-05-05 16:46 47.66752 20.71166 35907 ft 456 kts 334°
2026-05-05 16:46 47.72541 20.67326 35904 ft 456 kts 334°
2026-05-05 16:47 47.78329 20.63479 35903 ft 456 kts 334°
2026-05-05 16:47 47.84121 20.59618 35908 ft 456 kts 334°
2026-05-05 16:48 47.89918 20.55746 35918 ft 457 kts 334°
2026-05-05 16:48 47.95717 20.51863 35910 ft 457 kts 334°
2026-05-05 16:49 48.01517 20.47969 35915 ft 457 kts 334°
2026-05-05 16:49 48.07320 20.44063 35909 ft 457 kts 334°
2026-05-05 16:50 48.13119 20.40151 35916 ft 458 kts 334°
2026-05-05 16:50 48.18927 20.36222 35916 ft 458 kts 334°
2026-05-05 16:51 48.24735 20.32284 35922 ft 458 kts 334°
2026-05-05 16:51 48.30505 20.28362 35921 ft 458 kts 334°
2026-05-05 16:52 48.36313 20.24403 35924 ft 458 kts 334°
2026-05-05 16:52 48.42119 20.20437 35931 ft 459 kts 334°
2026-05-05 16:53 48.47927 20.16460 35927 ft 458 kts 334°
2026-05-05 16:53 48.53733 20.12473 35929 ft 458 kts 333°
2026-05-05 16:54 48.59530 20.08482 35934 ft 458 kts 333°
2026-05-05 16:54 48.65329 20.04479 35932 ft 458 kts 333°
2026-05-05 16:55 48.71121 20.00472 35945 ft 457 kts 333°
2026-05-05 16:55 48.76906 19.96459 35936 ft 457 kts 333°
2026-05-05 16:56 48.82713 19.92420 35498 ft 462 kts 333°
2026-05-05 16:56 48.85628 19.90388 35068 ft 461 kts 333°
2026-05-05 16:56 48.88535 19.88361 34656 ft 460 kts 333°
2026-05-05 16:57 48.91440 19.86331 34234 ft 461 kts 333°
2026-05-05 16:57 48.94361 19.84288 33772 ft 463 kts 333°
2026-05-05 16:57 48.97294 19.82234 33265 ft 464 kts 333°
2026-05-05 16:57 49.00231 19.80172 32804 ft 466 kts 334°
2026-05-05 16:58 49.03178 19.78104 32355 ft 467 kts 332°
2026-05-05 16:58 49.06128 19.76030 31906 ft 468 kts 333°
2026-05-05 16:58 49.09094 19.73943 31451 ft 470 kts 333°
2026-05-05 16:58 49.12070 19.71845 31014 ft 473 kts 333°
2026-05-05 16:59 49.15070 19.69726 30554 ft 476 kts 333°
2026-05-05 16:59 49.18092 19.67591 30091 ft 480 kts 333°
2026-05-05 16:59 49.21182 19.65608 29532 ft 485 kts 339°
2026-05-05 16:59 49.24457 19.64344 29010 ft 488 kts 348°
2026-05-05 17:00 49.27849 19.63833 28434 ft 492 kts 358°
2026-05-05 17:00 49.31226 19.63993 27956 ft 492 kts
2026-05-05 17:00 49.34653 19.64251 27463 ft 493 kts
2026-05-05 17:00 49.38076 19.64445 26982 ft 492 kts 359°
2026-05-05 17:01 49.41491 19.64625 26498 ft 494 kts
2026-05-05 17:01 49.44844 19.65822 25986 ft 499 kts 21°
2026-05-05 17:01 49.47856 19.68462 25534 ft 501 kts 38°
2026-05-05 17:01 49.50373 19.72185 25097 ft 502 kts 47°
2026-05-05 17:02 49.52724 19.76140 24595 ft 499 kts 47°
2026-05-05 17:02 49.55048 19.80072 24109 ft 493 kts 47°
2026-05-05 17:02 49.57353 19.83931 23630 ft 486 kts 46°
2026-05-05 17:02 49.59657 19.87739 23106 ft 484 kts 46°
2026-05-05 17:03 49.61949 19.91497 22588 ft 479 kts 46°
2026-05-05 17:03 49.64228 19.95222 22108 ft 475 kts 46°
2026-05-05 17:03 49.66499 19.98938 21654 ft 477 kts 47°
2026-05-05 17:03 49.68767 20.02659 21172 ft 475 kts 47°
2026-05-05 17:04 49.71017 20.06360 20722 ft 470 kts 47°
2026-05-05 17:04 49.73241 20.10028 20277 ft 466 kts 48°
2026-05-05 17:04 49.75551 20.13515 19822 ft 464 kts 38°
2026-05-05 17:04 49.78404 20.15816 19376 ft 463 kts 18°
2026-05-05 17:05 49.81544 20.16782 18966 ft 460 kts
2026-05-05 17:05 49.84720 20.16496 18508 ft 457 kts 347°
2026-05-05 17:05 49.87800 20.15345 18052 ft 456 kts 344°
2026-05-05 17:05 49.90881 20.14159 17552 ft 455 kts 345°
2026-05-05 17:06 49.93901 20.12761 17039 ft 450 kts 333°
2026-05-05 17:06 49.96497 20.10178 16633 ft 439 kts 315°
2026-05-05 17:06 49.98665 20.06892 16229 ft 432 kts 311°
2026-05-05 17:06 50.00760 20.03584 16129 ft 429 kts 311°
2026-05-05 17:07 50.02856 20.00284 16113 ft 429 kts 311°
2026-05-05 17:07 50.04977 19.96976 16111 ft 434 kts 312°
2026-05-05 17:07 50.07121 19.93659 16093 ft 434 kts 312°
2026-05-05 17:07 50.09262 19.90365 16098 ft 430 kts 312°
2026-05-05 17:08 50.11355 19.87148 16090 ft 426 kts 312°
2026-05-05 17:08 50.13459 19.83910 16099 ft 424 kts 311°
2026-05-05 17:08 50.15559 19.80672 16113 ft 425 kts 311°